Regional Weather Roundup
Issued by NWS

Home | Current Version | Previous Version | Text Only | Print | Product List | Glossary Off
Versions: 1 2 3 4 5 6 7 8 9 10 11 12 13 14 15 16 17 18 19 20 21 22 23 24 25 26 27 28 29 30 31 32 33 34 35 36 37 38 39 40 41 42 43 44 45 46 47 48 49 50

000
ASUS43 KBIS 042010
RWRND

NORTH DAKOTA REGIONAL WEATHER ROUNDUP
NATIONAL WEATHER SERVICE BISMARCK ND
200 PM CST WED MAR 04 2015

NOTE: "FAIR" INDICATES FEW OR NO CLOUDS BELOW 12,000 FEET WITH NO
SIGNIFICANT WEATHER AND/OR OBSTRUCTIONS TO VISIBILITY.


NDZ001>003-009>011-017-042100-
NORTHWEST NORTH DAKOTA

CITY           SKY/WX    TMP DP  RH WIND       PRES   REMARKS
WILLISTON      SUNNY      1 -14  49 NW6       30.34  WCI -10
MINOT          SUNNY     -1 -13  56 W14G23    30.32  WCI -20
MINOT AFB      SUNNY     -2 -12  63 NW17      30.32S WCI -23
$$

NDZ018>021-031>035-040>046-042100-
SOUTHWEST NORTH DAKOTA

CITY           SKY/WX    TMP DP  RH WIND       PRES   REMARKS
BISMARCK       MOSUNNY    3 -13  47 NW16      30.35  WCI -16
DICKINSON      SUNNY      9 -10  42 NW13      30.22F WCI  -7
GARRISON         N/A     -2 -12  62 NW15      30.32F WCI -22
HETTINGER ARPT PTSUNNY    9 -11  40 NW14G20   30.23  WCI  -7
$$

NDZ004>008-012>016-024-026-027-054-042100-
NORTHEAST NORTH DAKOTA

CITY           SKY/WX    TMP DP  RH WIND       PRES   REMARKS
GRAND FORKS    CLOUDY     2  -9  60 NW16G24   30.32  WCI -18
GRND FRKS AFB  MOSUNNY    2 -11  53 NW15      30.32R WCI -16
DEVILS LAKE    SUNNY     -2 -15  55 NW18      30.29F WCI -24
$$

NDZ022-023-025-028>030-036>039-047>053-042100-
SOUTHEAST NORTH DAKOTA

CITY           SKY/WX    TMP DP  RH WIND       PRES   REMARKS
FARGO          CLOUDY     4  -8  57 NW16G24   30.33R WCI -15
JAMESTOWN      MIX PCPN   1 -10  60 NW18G28   30.29F WCI -20
$$




USA.gov is the U.S. government's official web portal to all federal, state and local government web resources and services.